EN

Hourly Weather Kzyl-Tyubyak

Today, 28 July, Wednesday

Time Temperature Precipitation Wind Pressure Humidity
00:00 +14°C° 0 mm 2 mps 752 mmHg 72%
01:00 +13°C° 0 mm 2 mps 752 mmHg 76%
02:00 +12°C° 0 mm 2 mps 752 mmHg 78%
03:00 +10°C° 0 mm 2 mps 752 mmHg 81%
04:00 +10°C° 0 mm 2 mps 752 mmHg 83%
05:00 +12°C° 0 mm 2 mps 752 mmHg 76%
06:00 +13°C° 0 mm 2 mps 753 mmHg 69%
07:00 +14°C° 0 mm 3 mps 753 mmHg 62%
08:00 +16°C° 0 mm 3 mps 753 mmHg 55%
09:00 +18°C° 0 mm 4 mps 753 mmHg 47%
10:00 +19°C° 0 mm 5 mps 753 mmHg 40%
11:00 +20°C° 0 mm 5 mps 753 mmHg 38%
12:00 +21°C° 0 mm 5 mps 752 mmHg 35%
13:00 +22°C° 0 mm 5 mps 752 mmHg 33%
14:00 +22°C° 0 mm 5 mps 752 mmHg 32%
15:00 +23°C° 0 mm 5 mps 752 mmHg 31%
16:00 +23°C° 0 mm 5 mps 752 mmHg 30%
17:00 +23°C° 0 mm 5 mps 752 mmHg 32%
18:00 +22°C° 0 mm 4 mps 752 mmHg 34%
19:00 +22°C° 0 mm 4 mps 752 mmHg 37%
20:00 +19°C° 0 mm 3 mps 752 mmHg 44%
21:00 +17°C° 0 mm 2 mps 752 mmHg 51%
22:00 +15°C° 0 mm 1 mps 752 mmHg 59%
23:00 +14°C° 0 mm 1 mps 752 mmHg 61%

Tomorrow, 29 July, Thursday

Time Temperature Precipitation Wind Pressure Humidity
00:00 +14°C° 0 mm 2 mps 752 mmHg 63%
01:00 +13°C° 0 mm 2 mps 751 mmHg 65%
02:00 +13°C° 0 mm 2 mps 751 mmHg 66%
03:00 +13°C° 0 mm 2 mps 751 mmHg 67%
04:00 +11°C° 0 mm 3 mps 751 mmHg 68%
05:00 +13°C° 0 mm 3 mps 751 mmHg 62%
06:00 +16°C° 0 mm 3 mps 751 mmHg 56%
07:00 +17°C° 0 mm 4 mps 751 mmHg 51%
08:00 +19°C° 0 mm 4 mps 751 mmHg 45%
09:00 +22°C° 0 mm 5 mps 751 mmHg 38%
10:00 +25°C° 0 mm 5 mps 750 mmHg 32%
11:00 +26°C° 0 mm 5 mps 750 mmHg 31%
12:00 +27°C° 0 mm 5 mps 750 mmHg 29%
13:00 +28°C° 0 mm 5 mps 749 mmHg 28%
14:00 +28°C° 0 mm 5 mps 749 mmHg 28%
15:00 +28°C° 0 mm 5 mps 749 mmHg 28%
16:00 +28°C° 0 mm 5 mps 748 mmHg 28%
17:00 +26°C° 0 mm 5 mps 748 mmHg 37%
18:00 +23°C° 0 mm 5 mps 748 mmHg 47%
19:00 +21°C° 0 mm 5 mps 747 mmHg 56%
20:00 +20°C° 0.6 mm 5 mps 747 mmHg 69%
21:00 +18°C° 0.6 mm 4 mps 747 mmHg 81%
22:00 +16°C° 0.6 mm 3 mps 747 mmHg 94%
23:00 +16°C° 0.9 mm 3 mps 746 mmHg 93%

Day after tomorrow, 30 July, Friday

Time Temperature Precipitation Wind Pressure Humidity
00:00 +17°C° 0.9 mm 4 mps 746 mmHg 93%
01:00 +17°C° 0.9 mm 4 mps 745 mmHg 92%
02:00 +17°C° 0 mm 4 mps 745 mmHg 93%
03:00 +17°C° 0 mm 3 mps 744 mmHg 93%
04:00 +17°C° 0 mm 3 mps 744 mmHg 94%
05:00 +17°C° 0 mm 3 mps 744 mmHg 93%
06:00 +18°C° 0 mm 3 mps 744 mmHg 93%
07:00 +18°C° 0 mm 3 mps 744 mmHg 92%
08:00 +18°C° 0 mm 4 mps 744 mmHg 91%
09:00 +19°C° 0 mm 4 mps 744 mmHg 90%
10:00 +19°C° 0 mm 4 mps 744 mmHg 89%
11:00 +21°C° 0.1 mm 5 mps 745 mmHg 78%
12:00 +23°C° 0.1 mm 5 mps 745 mmHg 66%
13:00 +26°C° 0.1 mm 6 mps 745 mmHg 54%
14:00 +26°C° 0 mm 6 mps 745 mmHg 53%
15:00 +27°C° 0 mm 6 mps 745 mmHg 51%
16:00 +27°C° 0 mm 6 mps 745 mmHg 49%
17:00 +27°C° 0 mm 5 mps 746 mmHg 52%
18:00 +26°C° 0 mm 5 mps 746 mmHg 56%
19:00 +26°C° 0 mm 4 mps 746 mmHg 59%
20:00 +23°C° 0 mm 4 mps 746 mmHg 66%
21:00 +22°C° 0 mm 3 mps 746 mmHg 73%
22:00 +20°C° 0 mm 3 mps 746 mmHg 80%
23:00 +20°C° 0 mm 3 mps 746 mmHg 81%

31 July, Saturday

Time Temperature Precipitation Wind Pressure Humidity
00:00 +20°C° 0 mm 3 mps 746 mmHg 81%
01:00 +20°C° 0 mm 3 mps 746 mmHg 82%
02:00 +20°C° 0.5 mm 2 mps 746 mmHg 85%
03:00 +19°C° 0.5 mm 2 mps 746 mmHg 89%
04:00 +19°C° 0.5 mm 2 mps 747 mmHg 92%
05:00 +19°C° 1.5 mm 2 mps 747 mmHg 94%
06:00 +19°C° 1.5 mm 2 mps 747 mmHg 95%
07:00 +19°C° 1.5 mm 2 mps 747 mmHg 96%
08:00 +20°C° 0.6 mm 3 mps 746 mmHg 91%
09:00 +21°C° 0.6 mm 4 mps 746 mmHg 85%
10:00 +23°C° 0.6 mm 4 mps 746 mmHg 80%
11:00 +25°C° 0 mm 4 mps 746 mmHg 73%
12:00 +26°C° 0 mm 4 mps 745 mmHg 66%
13:00 +27°C° 0 mm 4 mps 745 mmHg 59%
14:00 +28°C° 0 mm 4 mps 745 mmHg 58%
15:00 +28°C° 0 mm 5 mps 745 mmHg 57%
16:00 +29°C° 0 mm 5 mps 744 mmHg 57%
17:00 +28°C° 0.1 mm 5 mps 745 mmHg 61%
18:00 +27°C° 0.1 mm 5 mps 745 mmHg 66%
19:00 +26°C° 0.1 mm 5 mps 745 mmHg 70%
20:00 +25°C° 0 mm 4 mps 745 mmHg 77%
21:00 +22°C° 0 mm 3 mps 746 mmHg 84%
22:00 +20°C° 0 mm 3 mps 746 mmHg 91%
23:00 +20°C° 0 mm 3 mps 746 mmHg 91%

1 August, Sunday

Time Temperature Precipitation Wind Pressure Humidity
00:00 +20°C° 0 mm 2 mps 747 mmHg 91%
01:00 +19°C° 0 mm 2 mps 747 mmHg 91%
02:00 +19°C° 0 mm 3 mps 747 mmHg 89%
03:00 +19°C° 0 mm 3 mps 747 mmHg 87%
04:00 +19°C° 0 mm 3 mps 747 mmHg 86%
05:00 +20°C° 0 mm 3 mps 748 mmHg 80%
06:00 +20°C° 0 mm 3 mps 748 mmHg 75%
07:00 +21°C° 0 mm 3 mps 748 mmHg 70%
08:00 +23°C° 0 mm 4 mps 748 mmHg 62%
09:00 +26°C° 0 mm 4 mps 749 mmHg 54%
10:00 +28°C° 0 mm 5 mps 749 mmHg 46%
11:00 +28°C° 0 mm 6 mps 749 mmHg 43%
12:00 +29°C° 0 mm 6 mps 749 mmHg 41%
13:00 +30°C° 0 mm 7 mps 749 mmHg 38%
14:00 +30°C° 0 mm 6 mps 749 mmHg 38%
15:00 +30°C° 0 mm 6 mps 749 mmHg 37%
16:00 +30°C° 0 mm 6 mps 749 mmHg 37%
17:00 +29°C° 0 mm 5 mps 749 mmHg 40%
18:00 +28°C° 0 mm 4 mps 749 mmHg 44%
19:00 +27°C° 0 mm 3 mps 749 mmHg 48%
20:00 +25°C° 0 mm 2 mps 749 mmHg 53%
21:00 +24°C° 0 mm 2 mps 750 mmHg 59%
22:00 +22°C° 0 mm 1 mps 750 mmHg 64%
23:00 +21°C° 0 mm 1 mps 750 mmHg 66%

2 August, Monday

Time Temperature Precipitation Wind Pressure Humidity
00:00 +20°C° 0 mm 2 mps 750 mmHg 67%
01:00 +20°C° 0 mm 2 mps 750 mmHg 68%
02:00 +19°C° 0 mm 2 mps 749 mmHg 69%
03:00 +19°C° 0 mm 2 mps 749 mmHg 69%
04:00 +19°C° 0 mm 3 mps 749 mmHg 69%
05:00 +20°C° 0 mm 3 mps 749 mmHg 65%
06:00 +22°C° 0 mm 3 mps 749 mmHg 61%
07:00 +24°C° 0 mm 3 mps 749 mmHg 57%
08:00 +26°C° 0 mm 5 mps 749 mmHg 49%
09:00 +29°C° 0 mm 6 mps 749 mmHg 42%
10:00 +33°C° 0 mm 7 mps 749 mmHg 35%
11:00 +34°C° 0 mm 7 mps 749 mmHg 33%
12:00 +35°C° 0 mm 7 mps 749 mmHg 31%
13:00 +36°C° 0 mm 7 mps 749 mmHg 29%
14:00 +36°C° 0 mm 7 mps 749 mmHg 29%
15:00 +36°C° 0 mm 6 mps 749 mmHg 30%
16:00 +35°C° 0 mm 6 mps 749 mmHg 31%
17:00 +34°C° 0 mm 5 mps 749 mmHg 37%
18:00 +33°C° 0 mm 4 mps 749 mmHg 43%
19:00 +30°C° 0 mm 3 mps 749 mmHg 49%
20:00 +28°C° 0 mm 2 mps 749 mmHg 56%
21:00 +27°C° 0 mm 2 mps 749 mmHg 62%
22:00 +25°C° 0 mm 1 mps 749 mmHg 69%
23:00 +24°C° 0 mm 1 mps 749 mmHg 72%
Show more